This demonstration page uses our WeatherBlox Daily Observations layout. Learn more.

Left ArrowRight Arrow

36.17497, -115.13722

Hourly Observations for August 7, 2019

Temp ( °F °C ) Dew Point ( °F °C ) Humidity (%) Winds ( mph kmh ) Pressure ( in mb ) Visibility ( mi km ) Precip ( " mm )
12:53 am 00:53 Clear 88 31.1 47 8.3 24 24 Calm 29.85 1011 10 16 0.00 0.00
1:53 am 01:53 Clear 85 29.4 49 9.4 29 29 Calm 29.85 1011 10 16 0.00 0.00
2:53 am 02:53 Clear 84 28.9 47 8.3 27 27 NNW 3 6 29.84 1011 10 16 0.00 0.00
3:53 am 03:53 Clear 83 28.3 47 8.3 28 28 NNW 5 7 29.85 1011 10 16 0.00 0.00
4:53 am 04:53 Clear 83 28.3 48 8.9 30 30 NW 3 6 29.86 1011 10 16 0.00 0.00
5:53 am 05:53 Sunny 82 27.8 47 8.3 29 29 N 5 7 29.87 1012 10 16 0.00 0.00
6:53 am 06:53 Sunny 82 27.8 46 7.8 28 28 NNW 5 7 29.88 1012 10 16 0.00 0.00
7:53 am 07:53 Sunny 86 30 46 7.8 25 25 N 3 6 29.89 1012 10 16 0.00 0.00
8:53 am 08:53 Sunny 90 32.2 47 8.3 23 23 S 3 6 29.89 1012 10 16 0.00 0.00
9:53 am 09:53 Sunny 93 33.9 48 8.9 21 21 Calm 29.88 1012 10 16 0.00 0.00
10:53 am 10:53 Sunny 96 35.6 48 8.9 19 19 VRB 7 11 29.87 1011 10 16 0.00 0.00
11:53 am 11:53 Sunny 99 37.2 47 8.3 17 17 S 5 7 29.85 1011 10 16 0.00 0.00
12:53 pm 12:53 Sunny 103 39.4 45 7.2 14 14 SSE 7 11 29.81 1010 10 16 0.00 0.00
1:53 pm 13:53 Sunny 103 39.4 45 7.2 14 14 SSW 12 19 29.79 1009 10 16 0.00 0.00
2:53 pm 14:53 Sunny 102 38.9 44 6.7 14 14 S 13 20 29.77 1008 10 16 0.00 0.00
3:53 pm 15:53 Sunny 98 36.7 47 8.3 17 17 WSW 14 22 29.80 1009 10 16 0.00 0.00
4:53 pm 16:53 Mostly Sunny 93 33.9 50 10 23 23 SW 9 15 29.84 1011 10 16 0.00 0.00
5:53 pm 17:53 Partly Cloudy with Light Rain 86 30 57 13.9 37 37 S 18 30 29.84 1011 10 16 0.00 0.00
6:22 pm 18:22 Mostly Cloudy 87 30.6 55 12.8 34 34 SW 22 35 29.71 1006 10 16 0.00 0.00
6:53 pm 18:53 Sunny 87 30.6 54 12.2 32 32 SW 18 30 29.85 1011 10 16 0.00 0.00
7:53 pm 19:53 Mostly Clear 87 30.6 54 12.2 32 32 S 8 13 29.89 1012 10 16 0.00 0.00
8:53 pm 20:53 Clear 85 29.4 55 12.8 36 36 SSW 6 9 29.88 1012 10 16 0.00 0.00
9:53 pm 21:53 Clear 84 28.9 55 12.8 37 37 S 3 6 29.88 1012 10 16 0.00 0.00
10:53 pm 22:53 Clear 83 28.3 55 12.8 38 38 ESE 8 13 29.88 1012 10 16 0.00 0.00
11:53 pm 23:53 Clear 82 27.8 55 12.8 40 40 S 5 7 29.90 1012 10 16 0.00 0.00

Powered by AerisWeather